Wind_Speed
28 29 32 33 33 31 28 25 23 22 19 17 16 16 14 12 11 10 11 13 15 16 17 20 22 25 27 28 27 27 27 27 28 28 29 30 31 31 32 32 33 34 34 35 36 36 37 37 38 38 37 37 37 37 37 37 35 36 36 35 35 35 34 34 36 36 31 29 30 24 19 23 25 26 29 30 31 33 33 34 35 36 38 40 40
25 28 31 32 32 31 28 27 25 24 21 18 17 16 15 14 13 11 9 9 11 14 16 18 19 20 22 24 26 26 26 27 27 28 28 29 30 31 32 32 33 33 34 35 36 36 37 37 36 36 36 36 36 36 36 36 35 36 37 35 36 35 34 34 35 35 32 30 31 29 26 27 29 28 30 31 31 31 32 32 34 35 38 40 40
22 24 28 31 31 29 26 26 27 25 23 21 19 18 16 15 14 13 12 10 10 10 12 15 16 18 20 21 23 24 25 26 27 28 28 29 29 30 31 32 32 33 34 34 34 35 36 35 35 35 34 34 35 35 35 35 35 36 37 36 36 36 35 35 35 36 35 33 32 31 29 32 34 32 31 33 32 32 33 33 34 37 39 40 40
21 21 24 27 31 30 26 23 25 26 24 22 21 20 18 16 15 14 14 13 12 11 10 11 13 15 17 18 19 21 23 24 25 26 27 27 28 29 30 31 31 31 32 32 32 33 33 34 33 33 32 32 33 34 34 34 35 36 36 36 37 37 36 36 36 36 36 36 36 33 30 31 33 31 32 34 36 37 38 37 37 39 41 41 40
21 21 22 24 28 31 28 23 23 26 25 23 22 21 20 18 17 16 15 14 14 13 12 11 11 12 13 14 15 17 18 20 22 24 24 25 26 26 27 28 29 30 30 30 30 30 31 32 31 30 31 31 32 32 33 34 34 36 36 37 36 36 36 37 37 37 37 38 38 36 34 32 30 29 29 33 36 37 38 38 38 40 40 41 40
21 21 22 23 23 27 27 24 24 26 25 23 22 22 21 20 18 17 17 16 15 14 14 13 12 12 12 13 14 14 15 15 18 21 22 23 24 25 26 27 27 28 28 28 29 29 30 31 30 30 31 32 32 32 33 33 34 35 36 36 35 35 35 36 37 36 37 38 38 37 36 33 30 28 28 31 34 34 35 37 38 40 40 41 41
20 20 22 23 22 23 23 23 25 26 24 22 22 22 21 21 20 19 18 17 16 16 15 14 14 13 14 14 14 15 16 16 17 19 20 21 22 23 24 25 26 27 27 28 28 29 30 31 31 31 32 32 33 33 33 33 34 35 35 35 33 33 34 34 35 34 35 37 37 37 37 33 31 31 29 29 31 32 33 36 38 40 41 41 42
20 21 23 22 21 20 19 20 25 26 24 22 23 22 22 21 20 19 19 18 17 16 16 15 15 15 15 15 15 16 16 17 18 19 20 21 22 23 24 24 25 27 27 28 29 30 31 32 33 33 33 33 34 34 34 34 34 34 34 33 31 31 32 32 32 33 33 34 35 36 35 33 31 32 30 28 31 33 34 36 38 39 40 41 41
19 21 23 21 18 17 17 18 21 23 23 23 24 24 23 22 21 20 19 19 18 16 16 15 15 15 15 15 16 16 16 17 17 18 19 21 22 23 24 25 26 27 28 29 30 31 32 33 33 34 33 33 34 34 34 33 33 33 32 31 30 29 30 30 30 31 32 33 34 34 34 33 31 30 30 31 33 34 34 36 37 37 38 39 40
19 19 19 19 18 17 17 17 18 21 23 24 25 25 24 23 22 21 20 19 18 17 16 15 15 15 15 15 15 15 16 17 17 18 18 19 20 21 22 23 24 25 26 27 28 29 31 31 31 32 32 32 33 33 33 32 32 32 31 30 29 29 29 28 29 30 31 32 33 33 34 35 33 31 31 32 32 32 32 33 35 34 36 38 39
19 19 17 18 18 18 18 16 18 24 26 25 25 26 26 25 23 22 21 20 19 18 17 16 15 15 15 14 14 14 15 15 16 17 18 19 20 20 21 21 21 22 22 23 24 25 27 28 28 28 29 30 31 31 31 31 30 30 29 30 29 29 28 28 29 30 31 32 33 33 33 35 33 31 31 30 30 31 32 33 33 33 34 37 39
19 18 18 19 19 18 17 16 21 28 30 27 26 26 27 26 25 23 22 21 20 19 18 17 15 15 14 14 14 14 14 14 15 15 16 18 19 20 20 20 21 21 21 22 22 23 24 25 26 26 26 27 28 28 29 29 29 28 28 29 30 30 29 29 29 29 29 31 33 33 33 33 32 30 30 29 29 30 30 32 32 31 32 35 37
20 19 19 20 20 18 17 17 23 30 31 28 27 27 27 27 27 25 24 22 21 20 19 18 16 15 14 14 13 13 12 12 13 13 15 17 18 18 17 18 19 20 21 21 21 21 22 23 24 25 25 25 26 27 27 27 27 27 27 27 29 30 29 29 29 29 29 30 31 32 32 31 30 30 30 29 30 30 31 32 31 30 30 32 34
22 22 19 19 19 19 18 19 24 30 31 29 29 28 27 27 27 27 25 24 22 21 20 19 18 16 15 14 13 12 12 12 11 13 16 17 17 16 16 17 18 19 20 20 20 20 20 20 21 22 23 22 23 24 25 25 25 26 26 27 28 29 29 29 29 29 29 29 30 32 31 30 30 30 30 29 30 31 32 31 29 28 29 28 30
23 23 20 19 21 21 20 21 27 32 31 30 30 30 29 28 27 26 26 25 24 22 21 20 19 17 16 15 14 13 12 12 12 14 17 18 16 15 15 15 17 18 18 19 19 19 19 19 18 19 20 19 19 20 21 22 23 24 25 27 28 28 29 29 29 29 29 30 31 31 30 29 29 29 29 28 29 29 28 27 25 24 24 24 25
22 21 20 21 22 23 22 22 29 35 33 30 31 31 30 29 27 26 25 25 24 22 21 20 20 18 17 15 14 13 12 12 13 14 16 18 16 14 13 14 15 16 16 17 17 18 18 18 18 18 18 17 16 17 18 19 21 22 24 25 26 27 28 28 27 27 28 29 30 30 30 29 28 28 29 28 28 27 25 24 23 22 22 23 25
22 20 20 21 21 22 22 24 32 36 33 31 32 32 31 29 27 26 25 24 23 22 21 20 19 19 17 15 14 14 13 13 14 14 15 17 15 12 11 13 14 14 14 15 15 15 15 16 16 16 16 15 15 15 14 15 17 19 21 23 24 25 25 26 26 25 25 25 25 24 25 25 25 25 25 26 26 25 24 25 25 24 25 26 28
23 22 22 21 21 22 25 29 34 35 32 32 33 33 32 29 26 25 24 23 22 20 19 19 18 18 16 15 14 14 14 14 14 14 14 16 15 11 10 12 12 12 13 14 14 14 13 13 13 14 14 13 13 13 13 14 16 17 18 19 21 22 22 23 23 22 22 22 21 20 19 20 20 19 19 20 21 22 23 24 24 24 27 29 29
24 24 22 21 23 27 29 31 33 33 32 33 33 33 32 28 24 23 22 21 19 17 16 16 16 16 15 14 13 14 14 14 14 14 14 15 15 12 11 11 11 11 12 12 13 13 13 13 13 13 13 12 12 12 12 13 14 16 17 18 19 20 20 21 22 20 20 21 21 21 21 21 22 21 20 19 19 21 23 22 21 22 25 27 27
26 25 21 21 27 32 31 30 31 32 33 34 33 32 29 25 22 21 20 18 16 15 14 14 15 14 14 13 12 13 13 14 14 15 15 15 15 14 12 12 11 11 11 11 11 13 13 14 14 15 14 14 14 14 13 13 14 15 15 17 19 19 19 20 21 20 20 20 21 22 22 23 24 25 25 23 22 22 23 24 22 22 24 26 26
27 23 21 24 31 33 31 30 31 32 32 33 32 30 25 22 21 19 18 17 15 15 14 14 14 13 13 12 12 12 12 13 14 15 15 15 15 14 13 13 12 11 11 11 11 11 11 12 14 15 15 15 15 15 15 15 15 15 15 15 16 16 17 18 20 20 20 21 21 22 23 23 24 25 27 27 25 25 25 26 26 24 25 27 28
25 21 21 27 33 33 30 30 31 31 31 31 29 25 21 19 19 18 17 16 15 14 14 13 13 12 12 12 12 12 12 12 13 14 14 15 14 13 13 14 12 11 10 11 11 10 11 12 14 15 13 14 15 15 16 17 17 18 18 16 15 14 14 15 16 17 19 20 21 21 22 22 23 24 24 25 27 27 27 28 29 28 27 27 28
24 23 26 30 34 34 31 31 31 31 29 27 24 21 19 17 17 17 16 15 15 14 13 12 12 12 11 11 12 12 12 12 12 13 13 13 12 12 12 12 12 11 11 10 10 10 11 13 14 13 12 12 12 13 15 16 16 16 18 19 19 19 18 17 16 15 16 17 17 19 19 18 17 18 19 19 21 24 26 29 31 32 32 31 30
25 28 31 33 34 33 32 31 30 28 25 22 21 19 17 16 16 16 16 15 14 13 12 12 11 11 10 10 11 12 12 12 12 12 12 11 11 11 11 12 13 12 11 10 10 11 12 12 12 13 12 12 13 14 15 16 16 17 19 20 20 20 20 19 18 18 17 17 16 17 17 16 16 16 18 19 19 20 23 27 28 30 31 32 31
27 31 33 33 33 33 31 30 28 24 21 20 19 18 17 16 16 15 15 15 14 13 12 12 11 11 11 10 11 12 12 11 11 10 10 10 10 10 11 11 12 11 10 10 10 11 12 12 13 14 14 14 16 17 17 17 18 19 19 19 18 18 18 18 18 18 18 17 16 15 15 15 17 19 20 22 22 22 23 25 27 28 30 31 31
31 32 33 33 32 31 30 28 25 22 21 20 18 16 16 16 15 15 14 14 14 13 12 12 12 12 11 10 10 12 11 10 10 10 9 8 9 9 10 10 10 10 10 11 11 11 12 13 13 14 14 15 16 16 17 18 19 19 20 19 19 18 18 18 17 17 17 15 13 13 12 12 13 17 20 23 25 25 25 25 25 26 28 30 31
33 33 32 31 30 30 29 26 23 21 20 19 17 15 15 15 14 14 14 13 13 12 11 12 11 10 9 8 8 10 10 8 8 7 7 7 7 8 9 10 10 9 10 10 11 12 12 13 13 13 14 14 15 15 16 17 17 19 20 20 20 20 20 20 19 18 18 16 14 13 13 12 13 16 18 20 22 23 23 24 24 23 23 24 26
32 32 31 29 28 28 26 24 22 21 19 17 16 15 15 14 14 13 13 13 13 11 10 10 9 8 7 5 6 8 7 5 5 5 6 6 7 7 9 9 9 8 8 9 11 12 11 11 12 13 13 13 14 13 13 13 14 17 19 20 20 21 21 22 22 21 21 21 20 19 18 18 19 20 21 21 21 21 21 21 23 24 24 24 26
32 32 30 28 28 26 23 22 21 19 17 16 15 14 14 14 13 13 12 12 11 11 10 10 9 8 7 8 9 8 6 4 6 7 7 6 6 6 7 7 7 8 8 10 11 12 11 11 12 12 12 12 12 12 12 11 11 13 16 18 19 20 21 21 21 20 19 20 21 21 21 21 21 22 22 21 20 20 20 20 22 23 23 24 25
33 30 27 26 25 24 22 21 19 17 15 15 15 15 14 13 12 11 11 10 9 10 10 8 6 7 9 12 12 10 7 8 9 9 7 5 5 8 10 10 10 10 11 12 13 13 13 12 11 11 11 11 10 11 11 10 10 11 13 15 17 18 19 20 19 19 19 19 20 19 19 20 19 19 19 20 19 18 19 20 21 21 21 22 23
30 28 24 22 22 22 21 19 17 16 16 16 16 14 13 12 10 9 8 8 8 9 9 6 5 9 13 14 13 11 11 11 11 11 9 8 8 12 14 12 12 13 14 14 12 11 10 9 9 10 12 12 12 12 12 12 13 13 12 14 16 17 17 18 19 20 20 19 19 19 19 19 19 18 18 18 18 18 18 19 20 20 21 21 21
26 25 22 21 21 21 19 16 15 16 16 16 15 13 11 10 9 8 8 7 8 9 10 9 10 13 15 14 13 13 13 13 13 12 11 10 11 13 12 11 13 15 14 12 10 8 9 10 10 11 13 14 14 15 15 16 17 16 15 14 15 16 17 18 19 18 18 18 18 19 19 18 18 18 18 18 19 19 19 18 19 19 19 20 20
23 22 21 20 18 17 15 15 15 17 17 15 14 12 10 8 7 8 9 8 8 9 11 12 13 15 16 16 16 16 16 16 16 13 10 9 11 12 11 12 14 15 13 11 11 10 11 13 15 15 16 16 16 17 18 18 18 18 17 15 15 17 20 20 18 17 18 19 18 18 18 18 19 19 19 19 20 20 19 19 19 19 19 20 20
19 19 17 15 14 13 14 16 17 17 16 15 13 12 11 9 8 9 10 10 10 11 12 13 13 14 16 17 18 18 17 18 17 14 10 10 13 14 13 13 14 13 12 13 14 14 14 15 16 17 17 17 18 18 18 19 18 18 18 17 17 19 22 20 18 18 19 19 19 19 19 19 19 19 19 18 18 18 18 17 18 18 17 17 18
15 14 12 11 11 13 14 16 17 17 16 14 13 12 11 11 10 10 10 11 11 12 14 15 14 14 16 17 17 18 17 17 16 13 11 13 15 15 14 14 14 14 15 15 14 15 16 17 18 18 17 17 18 18 18 19 19 18 18 17 18 20 20 18 18 19 18 17 18 19 18 18 18 18 17 17 16 16 16 15 15 16 16 17 18
12 12 11 12 13 15 16 17 17 17 16 15 13 13 12 12 12 12 12 12 12 12 14 15 15 15 15 15 16 16 16 16 15 14 14 16 16 14 13 14 15 16 17 17 16 16 17 18 19 20 20 19 19 18 18 18 18 18 17 17 17 18 17 15 16 17 16 15 17 18 16 16 17 16 15 15 15 15 15 15 16 16 17 17 18
13 13 14 15 17 18 19 19 18 17 16 15 14 13 13 13 13 13 13 13 13 13 13 14 14 15 15 15 14 15 15 15 15 15 16 16 16 14 15 15 16 16 17 17 18 18 18 18 18 19 19 19 18 17 17 17 18 17 17 17 17 17 16 15 15 15 14 14 16 16 15 15 16 16 15 14 14 13 14 14 14 15 15 16 17
16 16 17 17 19 20 20 20 19 18 16 15 14 14 14 13 13 13 13 13 13 13 13 13 13 14 15 14 14 13 14 14 14 15 15 15 15 15 16 16 16 16 16 17 18 18 17 17 18 17 17 17 17 16 16 16 16 17 16 16 16 17 16 15 15 14 14 14 15 15 14 15 15 14 14 14 13 13 13 14 14 14 14 14 15
18 19 20 19 20 20 20 20 19 18 17 15 15 15 14 14 14 14 14 14 14 14 14 14 13 13 14 14 13 13 13 14 14 14 15 15 15 15 16 15 16 16 16 16 17 17 16 16 17 16 15 15 16 15 15 15 15 15 15 14 15 15 15 14 14 14 13 14 15 14 13 13 13 12 11 11 11 12 13 13 13 13 13 13 13
20 21 22 21 21 20 20 20 19 18 17 16 15 15 15 15 15 15 14 14 14 14 14 14 13 13 13 13 13 13 13 13 14 14 14 14 15 15 15 15 15 16 16 16 16 16 15 15 16 15 14 14 14 14 14 14 14 14 13 13 13 13 13 13 13 12 12 12 12 12 11 10 10 9 8 9 9 10 11 11 11 11 12 12 12
22 22 22 22 22 21 20 20 19 18 17 16 16 16 16 16 16 16 16 15 15 15 15 14 13 14 13 13 13 14 14 14 14 14 14 14 14 14 14 14 14 15 15 15 16 16 15 14 14 14 14 13 13 12 13 13 13 13 13 13 13 13 13 12 12 11 10 10 11 10 9 9 8 8 8 8 9 10 10 10 11 11 11 11 12
22 23 23 22 22 22 21 20 19 19 18 17 17 17 17 17 17 17 17 16 16 16 15 15 14 14 14 14 14 15 15 14 14 14 14 14 13 13 13 14 14 14 14 15 15 15 15 14 13 13 13 13 12 12 12 12 12 12 13 13 13 12 13 12 11 10 10 10 10 9 9 8 8 8 8 9 9 10 10 10 11 11 11 11 12
23 23 23 22 22 22 21 20 19 19 19 18 18 17 17 18 18 18 18 17 17 16 16 16 15 16 16 15 15 15 16 15 15 15 14 13 13 13 13 14 14 14 14 15 15 15 15 14 13 13 13 12 12 11 12 12 13 13 13 13 12 12 12 12 10 9 9 9 9 8 8 8 8 8 8 8 8 9 9 9 10 10 10 10 10
23 23 23 23 23 22 22 21 20 19 19 19 19 18 18 18 18 18 18 18 17 17 17 16 16 17 17 16 16 16 16 16 16 15 14 13 13 13 13 14 14 14 14 15 15 14 14 14 13 13 13 12 11 12 12 12 12 13 13 12 12 12 12 11 10 8 8 8 8 7 7 7 7 7 7 7 7 7 7 8 8 9 9 9 10
23 23 23 23 23 23 22 22 22 21 20 19 19 19 19 19 19 19 19 18 18 18 18 17 17 17 17 17 17 17 17 17 16 16 15 14 14 13 14 14 14 14 14 15 15 14 13 13 13 13 12 11 11 12 13 12 12 12 12 12 11 11 10 10 9 8 7 8 7 7 6 6 6 6 6 6 6 6 6 7 8 8 8 9 10
24 23 23 23 23 23 22 22 22 22 21 20 19 19 19 19 19 19 19 19 19 18 18 18 18 18 18 18 18 17 17 17 17 16 16 15 14 14 14 15 14 14 14 14 15 14 13 13 13 12 12 12 12 12 12 12 12 12 12 11 11 11 9 9 8 8 7 7 7 6 6 6 5 5 5 5 5 5 6 6 7 8 8 9 10
25 24 24 24 23 23 23 22 22 22 22 21 20 20 19 19 20 19 19 19 18 18 18 18 18 18 18 18 18 18 17 17 17 17 17 16 15 15 15 15 14 14 14 14 14 14 13 13 13 12 12 12 12 12 12 12 12 11 11 11 10 10 9 8 8 8 7 7 7 7 6 6 5 5 5 5 5 5 5 5 6 7 7 8 10
26 25 24 24 23 23 23 22 22 22 22 21 21 20 20 19 20 19 19 19 18 18 18 18 18 18 18 18 18 18 18 18 18 18 17 17 16 15 15 15 14 14 14 13 13 13 13 13 13 12 12 12 12 12 12 12 11 11 11 10 10 9 8 8 8 8 8 8 8 7 7 6 6 5 5 4 4 4 4 4 5 6 7 8 10
28 27 26 25 24 23 23 22 22 21 21 21 21 20 20 20 19 19 19 18 18 17 18 17 17 18 18 18 19 19 18 18 18 18 18 17 17 16 16 15 15 14 14 13 13 13 13 13 13 13 12 12 12 12 12 11 11 11 10 10 9 9 9 9 9 8 9 9 8 8 8 7 6 5 4 3 3 3 4 5 6 7 8 9 11
28 27 26 26 25 24 23 22 22 21 21 20 20 20 20 20 20 19 18 18 18 17 17 17 17 18 18 18 18 19 18 18 18 18 18 18 18 17 16 15 15 14 14 13 13 13 13 13 13 13 13 13 12 12 12 11 11 10 10 9 9 9 9 9 9 9 10 9 9 8 8 7 6 5 4 3 3 4 5 6 7 8 9 11 12
27 27 26 26 25 24 24 23 22 22 21 21 20 20 20 20 20 20 19 19 18 18 18 18 18 18 18 18 18 18 18 18 18 18 18 18 18 17 17 16 15 15 14 13 13 13 12 13 13 14 13 13 12 12 11 11 10 10 10 9 10 10 10 11 11 11 10 10 9 8 8 6 5 4 3 4 4 5 6 7 8 10 11 12 13
Wind_Direction
348 348 348 348 347 343 337 332 329 324 323 324 321 317 316 316 313 300 285 273 266 261 257 255 254 253 252 251 249 248 248 248 248 249 249 248 248 247 247 246 246 246 247 246 245 245 245 245 245 245 244 244 244 244 243 242 240 240 239 238 236 236 236 236 241 245 243 238 236 239 252 258 252 248 249 250 251 250 250 250 250 249 250 251 252
343 343 344 346 346 343 337 331 328 323 319 317 314 312 310 309 310 309 302 286 271 265 260 256 251 249 249 248 246 244 242 241 241 241 241 242 243 244 244 244 244 244 243 243 244 244 243 243 244 245 244 244 245 245 245 244 243 243 242 239 238 238 236 236 239 243 243 241 239 237 241 249 250 248 249 251 252 251 248 247 249 250 250 251 252
337 338 341 344 344 341 336 330 327 323 319 314 309 307 307 306 305 305 303 296 285 274 266 260 253 249 247 246 245 243 241 239 237 236 236 236 238 239 240 241 241 242 241 242 243 244 244 243 243 244 244 244 245 245 246 246 246 246 245 244 243 242 240 238 239 242 243 242 242 239 238 245 250 251 251 252 251 249 248 248 251 253 253 252 252
332 334 337 339 340 339 335 329 326 323 319 315 311 308 305 304 303 301 299 297 293 286 275 265 258 252 249 247 247 245 243 241 239 237 236 235 235 237 238 239 239 240 240 241 242 243 244 243 243 244 245 245 246 246 247 247 248 248 247 247 246 246 245 244 242 244 245 245 245 242 239 243 249 251 251 250 249 250 252 254 254 254 253 253 252
328 331 332 333 335 337 334 327 323 321 319 315 313 311 308 305 302 300 297 294 292 289 282 274 265 257 250 247 245 244 244 244 243 241 239 238 237 237 239 239 239 239 240 241 242 243 244 245 245 245 247 248 248 248 248 248 249 249 249 248 247 247 247 247 246 245 246 247 247 246 243 243 247 249 248 248 249 251 253 254 253 252 251 251 250
324 326 329 329 329 332 332 326 320 318 317 315 313 312 311 308 305 303 299 295 291 288 284 279 272 263 256 251 247 243 242 243 242 242 241 240 239 239 239 240 241 241 241 241 242 243 244 246 246 246 247 249 250 250 250 249 250 250 250 249 248 248 248 248 248 247 247 248 249 250 248 244 242 243 242 245 248 248 249 249 249 249 249 249 248
322 323 325 326 325 325 326 324 319 317 315 314 312 312 312 310 309 306 302 299 295 290 286 281 276 270 263 258 254 250 247 245 245 244 243 242 242 241 240 241 242 243 243 243 243 244 245 247 248 248 248 249 251 251 250 250 249 249 250 250 249 249 248 247 248 247 247 248 249 249 249 245 240 240 239 242 245 245 246 247 247 247 248 247 247
319 322 322 323 322 321 320 320 318 316 314 313 312 311 311 310 309 308 305 302 298 293 289 284 278 274 269 264 260 256 253 249 248 247 246 246 245 245 245 244 245 246 247 247 248 248 249 250 251 252 251 250 251 251 251 250 250 249 249 249 248 248 248 247 247 247 247 248 248 248 248 246 241 239 237 237 240 240 243 247 248 248 248 248 247
314 319 321 320 319 317 316 316 317 316 313 312 311 310 309 309 308 307 305 302 299 295 292 288 283 278 274 269 266 262 259 255 252 250 249 249 248 249 249 248 249 250 251 251 252 253 252 252 253 253 252 251 250 249 249 248 248 248 247 246 246 246 246 246 246 247 247 247 248 247 247 245 241 236 234 234 238 240 243 246 247 247 248 248 248
311 314 318 318 316 315 313 313 314 315 313 310 309 308 308 308 307 306 304 301 299 296 292 289 286 282 278 275 271 267 264 261 258 256 254 253 252 251 250 250 251 251 253 254 254 255 256 255 255 255 253 251 249 247 247 245 245 246 245 244 244 243 244 245 244 245 246 247 247 246 246 245 241 235 234 235 237 240 242 245 247 246 246 248 248
308 309 312 315 315 312 310 310 312 315 315 309 307 307 306 306 305 304 303 301 298 296 292 289 287 284 281 278 274 271 268 265 262 259 258 257 255 254 253 253 253 254 255 257 257 258 260 260 259 258 256 253 251 248 246 245 244 243 242 242 243 242 242 242 242 243 245 246 247 245 244 244 241 237 237 237 238 240 243 248 251 247 244 246 248
307 305 305 310 311 308 306 306 310 317 318 311 307 306 305 305 305 302 302 301 298 295 292 289 286 283 282 279 276 274 270 266 264 261 259 258 256 256 256 256 256 256 256 258 259 260 262 264 263 262 260 258 256 253 250 248 245 243 242 242 242 242 240 240 241 242 243 245 246 244 243 244 243 240 237 236 237 242 245 249 253 252 248 249 250
306 303 301 304 305 303 302 303 309 316 317 312 308 306 302 303 304 302 300 299 297 295 292 288 285 281 280 278 276 274 271 267 265 261 256 254 253 254 256 257 258 258 258 259 261 262 262 264 264 263 262 260 259 256 254 252 249 246 243 242 243 243 240 239 240 241 242 245 247 246 244 245 246 244 241 240 241 245 249 252 256 257 254 253 253
306 304 300 300 300 298 297 300 307 313 314 312 310 308 303 301 300 300 299 297 295 294 292 288 284 280 278 276 273 271 269 266 262 259 256 255 255 253 251 252 255 258 259 259 260 261 261 263 264 265 264 261 259 258 256 253 250 246 243 241 242 244 242 240 240 239 240 242 244 246 246 245 247 248 249 248 248 251 255 258 261 262 260 258 258
304 303 298 298 299 297 294 295 304 310 311 308 309 310 307 301 297 296 296 295 294 292 290 287 284 280 275 272 269 266 264 261 256 257 260 259 259 258 254 252 253 255 257 258 257 258 258 259 261 263 265 264 262 259 256 252 248 244 243 242 242 243 244 243 241 240 241 241 243 245 245 245 247 250 251 252 252 254 258 260 261 262 261 260 258
303 300 297 297 298 296 291 289 301 309 308 305 307 310 309 304 298 294 292 291 291 290 288 285 283 279 274 269 265 261 257 255 253 258 264 264 262 262 261 258 256 256 257 258 258 258 258 258 260 261 263 263 261 259 256 251 248 244 242 241 241 242 244 245 244 242 242 244 246 248 249 248 248 250 251 252 252 252 254 256 255 251 250 250 248
302 300 297 297 297 297 291 289 299 306 304 302 305 308 309 305 298 294 291 288 287 287 286 284 282 279 274 268 263 257 253 252 252 256 266 268 266 265 265 262 259 257 258 257 259 260 260 259 259 259 260 258 255 256 253 249 247 244 242 241 240 241 244 246 245 243 242 244 247 250 254 255 255 256 257 256 256 254 250 249 248 246 245 245 245
302 300 298 296 296 297 294 293 299 302 299 299 303 306 307 303 296 292 289 286 286 285 283 282 280 279 275 267 261 256 251 250 250 250 259 267 269 265 263 264 261 258 257 257 257 257 257 258 257 256 255 252 250 248 244 243 244 241 239 240 241 242 243 245 246 245 242 240 240 241 243 247 251 255 256 256 258 259 255 251 249 247 247 248 248
301 299 295 292 296 301 301 299 299 298 298 300 303 304 304 300 293 289 286 285 286 282 278 277 275 275 274 267 260 255 250 248 247 246 249 258 266 263 257 259 261 258 257 258 259 258 256 256 257 256 254 252 248 244 239 238 241 242 240 240 241 243 244 246 249 249 245 242 241 237 234 234 237 240 242 241 244 252 257 258 253 250 251 253 251
299 296 290 291 302 309 308 302 298 297 298 300 301 302 301 296 289 285 283 282 280 273 269 268 267 268 270 265 259 254 250 246 245 246 246 250 258 261 258 256 256 256 257 259 261 263 262 260 258 255 254 254 252 249 245 242 244 246 246 245 246 246 247 249 251 251 248 247 246 244 241 239 238 238 239 238 236 238 247 254 253 251 253 255 253
297 293 288 294 307 313 309 301 298 297 298 300 300 299 296 291 287 284 280 278 273 267 265 265 264 264 264 263 259 254 250 247 244 245 246 248 251 256 259 260 258 257 257 257 257 259 260 260 258 255 253 252 251 249 247 244 241 241 243 247 251 254 254 255 257 256 253 250 248 248 247 246 245 244 243 243 240 236 238 245 249 249 249 251 253
292 290 291 298 308 312 307 301 298 297 298 299 297 295 292 287 285 282 278 275 272 269 267 266 265 264 262 263 261 254 249 248 246 246 248 249 250 252 256 262 263 259 255 252 251 251 249 250 255 258 256 254 252 251 247 244 241 241 241 241 241 241 243 249 257 259 258 257 255 254 253 252 252 252 251 250 249 245 240 240 244 246 246 247 251
285 289 298 304 309 311 306 302 300 298 298 296 293 291 288 285 282 281 278 276 273 272 270 267 265 264 263 265 265 261 255 251 249 249 249 250 253 252 252 258 261 258 253 250 247 245 245 250 256 259 257 253 251 248 245 242 238 236 237 236 234 233 233 234 241 248 251 254 256 257 258 256 252 251 252 253 254 253 249 245 244 247 249 249 250
282 293 303 307 309 308 305 303 301 298 296 293 290 289 286 282 280 279 277 276 274 275 275 273 270 266 261 261 263 264 261 257 254 253 251 250 251 249 247 250 254 257 256 251 247 245 248 251 252 250 246 240 238 238 238 237 233 232 237 240 240 241 240 236 236 240 243 245 249 253 255 252 246 247 250 250 249 251 255 256 254 253 255 256 256
287 300 307 308 308 306 304 303 300 295 293 291 289 287 284 282 281 277 275 275 273 272 272 273 272 269 264 260 259 260 260 259 257 256 253 251 248 246 246 249 254 259 259 255 254 253 253 252 250 248 244 240 240 242 242 241 240 239 242 245 247 249 250 246 243 245 247 248 248 250 251 250 250 252 253 252 251 253 260 265 265 263 262 263 264
298 306 309 308 307 305 305 303 298 294 293 291 288 285 282 282 279 276 274 273 272 272 270 267 269 269 264 256 253 257 260 259 256 253 249 248 247 248 250 252 255 260 260 258 259 258 257 256 254 254 252 249 248 248 246 245 246 245 244 246 247 250 254 253 250 249 251 250 248 247 247 248 252 255 255 256 258 259 262 266 268 268 267 268 269
306 309 309 307 305 305 305 301 296 293 293 291 288 285 282 280 277 274 271 269 269 269 266 263 264 263 259 251 248 254 258 259 260 257 251 252 254 253 254 254 254 257 260 260 259 257 258 260 259 258 257 256 254 253 251 250 249 248 248 248 246 246 248 250 250 249 249 247 243 242 241 237 239 246 250 255 260 262 263 264 264 263 263 265 267
309 309 309 306 304 305 304 299 295 294 293 292 290 287 284 280 276 272 268 266 264 261 257 256 254 248 244 235 236 250 259 259 254 253 253 254 255 257 263 267 263 256 255 256 258 260 260 262 263 263 261 261 259 257 256 255 253 251 250 250 250 249 249 250 252 253 253 252 249 247 245 243 244 249 253 256 259 262 262 260 259 258 257 257 260
311 311 309 306 307 308 305 300 297 295 293 292 292 290 285 280 275 271 266 262 257 251 246 241 236 236 239 238 240 248 255 245 241 245 247 250 257 262 263 265 263 256 253 256 264 271 273 271 270 268 264 264 263 258 252 250 252 255 257 255 254 254 254 254 255 254 254 253 252 251 252 252 253 257 260 261 262 262 260 258 260 263 263 261 262
312 312 309 307 308 308 305 302 299 296 296 297 297 294 288 281 276 270 265 258 248 242 237 231 238 264 267 262 257 250 236 234 244 251 245 238 253 259 251 248 256 261 261 263 269 277 281 281 281 278 272 268 266 264 257 249 246 252 260 261 258 255 254 255 254 252 250 251 253 255 256 257 258 260 263 264 264 263 263 263 264 265 265 265 266
309 310 307 303 303 303 302 300 297 297 300 302 301 298 292 286 279 270 260 249 238 235 226 215 248 270 262 258 260 257 249 249 254 257 250 236 240 253 256 260 265 264 262 264 267 269 271 269 268 271 273 271 267 265 264 259 253 252 257 263 265 262 257 254 253 253 254 256 257 258 258 258 259 260 260 261 262 261 263 266 268 268 267 267 267
307 307 305 302 300 300 300 298 296 300 304 304 303 300 294 289 283 275 264 246 237 237 227 218 234 249 251 256 264 267 269 270 265 262 260 250 247 253 256 256 258 261 264 266 260 249 243 241 241 249 259 265 265 264 263 262 260 259 258 259 265 267 262 257 254 255 256 257 256 257 257 257 257 257 256 258 260 262 264 266 268 269 268 267 266
305 306 305 304 302 301 303 303 304 307 309 307 304 300 294 285 274 269 270 263 252 248 243 238 242 248 254 263 267 268 272 273 270 271 274 267 260 257 247 242 250 261 269 269 260 251 246 248 252 254 255 258 261 262 264 264 263 262 259 254 253 257 260 261 260 257 255 254 253 254 256 257 257 258 259 261 263 265 266 266 266 267 267 267 267
306 305 305 305 305 306 310 311 311 312 311 307 303 298 293 286 272 265 269 272 268 264 259 257 255 253 255 260 262 264 265 267 269 276 277 264 258 254 250 254 264 270 270 265 263 264 262 261 264 265 264 262 261 260 262 264 263 261 260 256 251 252 257 261 261 257 255 255 255 255 256 258 259 259 260 261 263 264 265 265 265 266 265 264 265
310 309 309 310 311 315 319 319 317 315 311 306 302 297 293 289 283 276 272 270 269 268 268 268 265 260 259 259 260 262 262 263 268 271 262 256 260 263 266 274 279 278 276 275 273 272 272 270 270 269 267 267 266 262 261 261 260 259 258 256 254 256 259 261 259 257 256 256 257 256 255 256 258 259 258 258 259 260 262 263 263 264 264 265 266
317 314 314 315 316 320 323 323 320 316 309 303 300 296 291 289 287 284 280 275 271 268 269 271 270 267 264 261 261 263 265 266 269 267 260 263 271 276 276 276 276 276 280 282 281 279 276 274 273 270 267 265 265 264 261 259 258 256 253 250 251 256 258 257 255 256 255 251 252 256 257 258 260 261 261 263 265 265 264 264 263 264 266 268 269
319 314 312 312 314 316 316 316 316 313 306 299 295 292 290 287 286 284 282 281 278 274 270 270 270 270 269 266 263 263 264 265 267 267 267 270 275 275 273 273 274 276 280 282 283 282 280 276 273 270 266 263 262 261 259 258 257 255 252 250 250 252 252 251 252 256 255 251 253 257 257 258 262 264 265 266 267 266 266 267 268 269 270 272 274
318 314 311 309 310 311 311 311 312 310 304 296 291 288 287 286 285 284 282 280 279 278 277 274 270 268 267 266 263 260 261 262 264 266 269 271 272 272 272 273 274 275 277 279 280 282 281 278 275 272 268 265 262 260 259 258 257 255 253 250 248 249 251 252 253 254 252 253 257 258 256 256 260 262 262 261 259 259 260 262 266 270 270 273 278
317 315 314 313 313 312 311 310 310 308 303 295 288 285 285 285 284 283 281 279 278 277 277 276 272 268 265 266 265 262 261 262 263 263 266 267 268 269 271 272 273 274 275 276 278 280 280 278 277 276 271 265 262 259 257 254 253 251 250 248 246 247 249 251 251 249 246 247 253 256 255 256 260 261 261 260 257 255 258 262 266 269 271 273 276
315 313 313 314 315 314 312 311 309 307 302 295 287 284 283 284 284 284 282 280 279 277 275 274 272 269 266 266 267 267 266 265 265 265 265 266 266 268 270 272 274 277 280 281 283 284 283 280 277 276 271 264 260 256 251 249 248 246 244 244 244 243 243 243 244 245 242 241 248 254 255 257 262 265 264 262 259 259 264 271 275 277 278 281 282
314 312 312 313 314 314 313 310 308 307 302 294 288 285 284 283 283 283 282 280 278 277 277 277 275 273 270 268 268 267 266 265 265 265 265 266 267 269 271 275 278 283 287 289 289 288 285 281 277 273 268 262 256 249 244 243 242 239 236 236 236 238 240 240 241 245 247 245 250 257 260 260 263 264 262 262 266 273 279 282 284 285 287 288 288
314 312 311 312 311 311 310 308 307 306 303 295 288 283 281 281 281 280 279 279 277 276 277 278 278 277 274 271 269 267 265 264 264 264 265 266 268 271 275 279 283 287 289 291 291 290 288 283 275 268 264 258 251 245 240 238 236 235 234 233 233 236 242 245 244 245 249 251 252 255 259 262 263 262 262 264 270 277 282 284 285 288 288 288 288
314 312 311 310 309 308 307 306 304 303 300 296 289 283 278 278 278 277 277 278 277 276 277 277 277 277 275 272 269 268 267 266 265 264 265 268 271 275 279 282 285 290 292 292 292 290 286 282 273 264 259 254 247 241 236 233 232 233 233 233 235 236 241 246 247 243 243 249 253 254 256 260 263 265 267 268 270 274 278 281 283 284 284 286 288
315 313 312 310 309 308 307 305 303 301 299 294 288 283 279 277 276 275 276 277 276 276 275 274 274 275 273 271 269 267 266 266 266 265 268 270 273 276 280 283 287 291 293 294 293 290 283 276 268 260 256 251 242 237 234 231 230 232 233 234 237 237 239 245 250 247 244 250 254 254 254 256 259 262 265 267 270 272 274 277 280 282 282 284 285
318 315 312 310 308 307 306 305 303 302 299 294 288 282 278 276 275 275 276 276 277 276 275 272 271 271 270 270 269 267 265 265 265 266 268 271 273 276 279 282 285 289 291 293 293 290 281 271 262 257 252 246 238 233 232 230 228 230 233 235 237 238 239 243 249 251 250 251 255 256 253 250 250 252 258 262 265 266 268 273 278 283 285 285 286
319 316 313 311 309 306 304 303 302 300 299 296 291 284 279 277 277 276 276 276 276 274 273 271 269 268 269 269 269 269 267 266 265 266 267 269 271 274 276 280 283 286 288 290 291 289 281 269 260 252 246 240 235 231 229 228 226 228 230 232 234 237 239 240 244 247 245 244 247 247 242 239 238 240 247 255 257 257 263 270 277 283 288 289 291
318 317 316 314 312 309 306 303 300 298 297 295 290 284 279 276 277 277 276 275 274 272 271 271 270 269 269 269 269 270 270 268 267 267 267 268 270 271 274 278 282 283 285 288 288 286 279 267 257 249 240 235 232 229 226 225 225 225 226 227 230 233 235 234 234 235 231 228 229 227 223 222 223 223 227 235 243 253 264 271 278 287 293 295 297
313 313 313 312 312 311 309 306 301 298 296 293 290 284 277 273 273 274 274 274 273 271 270 269 268 268 269 269 268 269 269 268 268 268 267 267 268 269 272 276 279 281 283 286 286 283 276 264 255 246 237 230 228 226 224 223 222 221 223 225 226 228 228 225 222 218 212 210 210 208 205 205 207 210 214 221 232 252 271 279 287 297 301 300 302
309 309 308 308 309 309 308 307 305 301 297 293 289 284 278 274 272 271 271 273 273 272 271 270 269 268 268 268 267 267 267 267 267 267 266 266 267 267 270 274 277 279 281 283 283 280 272 261 250 242 234 228 226 224 222 220 219 218 220 222 221 219 217 212 207 203 199 197 195 193 192 195 198 200 205 215 232 257 278 288 294 300 302 301 304
306 305 304 304 305 305 305 305 305 302 299 295 289 283 278 274 272 271 272 273 273 273 272 270 269 269 269 269 268 268 267 266 265 265 264 264 265 266 268 271 274 276 278 280 280 276 268 256 247 239 231 226 224 222 220 218 217 217 218 216 212 208 204 199 196 193 190 188 187 185 186 191 194 197 206 225 248 267 283 292 296 300 301 302 303
305 303 302 301 302 301 301 302 302 301 300 297 291 285 279 273 271 271 272 272 273 273 271 269 269 268 268 269 269 268 267 265 264 263 262 262 262 264 266 267 270 273 275 276 276 273 264 252 243 236 229 225 223 220 217 215 215 215 214 209 203 199 195 190 189 187 185 183 183 184 188 192 196 206 228 249 265 279 289 295 298 300 303 304 305
Height
1455 1453 1451 1449 1447 1445 1443 1441 1439 1438 1436 1434 1432 1431 1429 1427 1425 1423 1422 1422 1421 1421 1421 1421 1421 1421 1421 1422 1423 1424 1425 1426 1427 1428 1429 1430 1431 1433 1434 1436 1437 1438 1440 1441 1443 1445 1447 1448 1450 1452 1454 1456 1458 1460 1461 1463 1465 1466 1469 1470 1471 1473 1475 1476 1475 1475 1478 1480 1481 1482 1480 1476 1477 1480 1481 1482 1484 1486 1488 1490 1491 1492 1492 1493 1495
1454 1452 1449 1448 1446 1444 1442 1440 1438 1436 1434 1433 1431 1429 1428 1426 1424 1422 1421 1420 1419 1418 1418 1418 1418 1418 1418 1418 1419 1420 1421 1422 1423 1424 1425 1426 1427 1429 1430 1432 1433 1435 1436 1437 1439 1440 1442 1444 1446 1447 1450 1451 1453 1455 1456 1458 1460 1461 1463 1465 1466 1468 1470 1471 1471 1471 1473 1475 1476 1478 1477 1474 1473 1476 1477 1478 1480 1482 1484 1486 1487 1487 1488 1489 1490
1454 1451 1449 1447 1445 1443 1441 1439 1437 1435 1433 1431 1430 1428 1426 1425 1423 1421 1420 1419 1417 1417 1416 1415 1415 1415 1415 1416 1416 1417 1418 1419 1420 1420 1421 1422 1423 1424 1426 1428 1429 1431 1432 1433 1435 1436 1437 1440 1442 1443 1446 1447 1448 1450 1452 1453 1455 1456 1458 1460 1461 1462 1464 1466 1467 1467 1468 1470 1471 1473 1474 1471 1470 1472 1473 1475 1477 1478 1479 1481 1482 1482 1483 1484 1486
1453 1451 1448 1445 1443 1441 1439 1437 1435 1434 1431 1430 1428 1426 1425 1423 1421 1420 1419 1417 1416 1415 1414 1413 1413 1413 1413 1413 1414 1414 1415 1415 1416 1416 1417 1418 1419 1420 1422 1424 1425 1427 1428 1429 1431 1432 1433 1435 1437 1439 1441 1443 1444 1446 1447 1449 1450 1451 1453 1454 1456 1457 1459 1460 1462 1462 1463 1464 1466 1468 1469 1469 1468 1468 1469 1470 1472 1473 1475 1476 1477 1477 1477 1479 1481
1452 1450 1447 1444 1442 1440 1438 1436 1434 1432 1430 1428 1426 1425 1423 1421 1420 1418 1417 1416 1415 1414 1413 1412 1411 1411 1411 1411 1411 1412 1412 1413 1413 1413 1413 1414 1415 1417 1418 1420 1421 1423 1424 1426 1427 1428 1429 1431 1433 1435 1437 1438 1440 1441 1443 1444 1445 1446 1447 1449 1451 1453 1454 1455 1456 1457 1458 1459 1460 1462 1464 1465 1465 1465 1465 1465 1466 1469 1470 1471 1472 1472 1473 1474 1476
1450 1448 1446 1443 1440 1438 1436 1434 1432 1430 1428 1426 1425 1423 1421 1419 1418 1417 1416 1414 1413 1412 1411 1410 1409 1409 1408 1408 1409 1409 1409 1410 1410 1410 1410 1411 1412 1414 1415 1416 1418 1419 1420 1422 1423 1424 1426 1427 1429 1431 1432 1433 1435 1437 1438 1439 1440 1441 1442 1444 1446 1448 1449 1450 1451 1452 1453 1454 1455 1457 1459 1460 1461 1461 1461 1460 1460 1463 1465 1466 1467 1467 1468 1470 1471
1448 1446 1444 1441 1439 1436 1434 1432 1430 1428 1426 1424 1423 1421 1419 1418 1416 1415 1413 1412 1411 1410 1409 1408 1407 1407 1406 1406 1406 1406 1407 1407 1407 1407 1407 1408 1409 1410 1412 1413 1414 1415 1417 1418 1420 1421 1422 1423 1425 1427 1428 1429 1431 1432 1434 1435 1435 1436 1438 1439 1441 1443 1443 1444 1446 1447 1448 1449 1450 1452 1453 1455 1457 1457 1457 1456 1456 1458 1460 1461 1462 1462 1463 1465 1466
1446 1444 1441 1439 1437 1434 1432 1430 1428 1426 1424 1422 1421 1419 1418 1416 1414 1413 1411 1410 1409 1407 1406 1405 1404 1404 1404 1404 1404 1404 1404 1404 1404 1404 1405 1405 1406 1407 1409 1410 1411 1412 1413 1414 1416 1417 1418 1420 1421 1422 1424 1425 1426 1427 1429 1430 1431 1432 1433 1435 1436 1437 1438 1439 1441 1442 1443 1444 1445 1447 1448 1450 1451 1452 1453 1453 1452 1452 1454 1456 1457 1458 1459 1460 1462
1443 1441 1439 1437 1435 1433 1431 1428 1426 1424 1422 1420 1419 1417 1416 1414 1412 1411 1409 1408 1406 1405 1404 1403 1402 1402 1401 1401 1401 1401 1401 1401 1401 1402 1402 1402 1403 1404 1405 1406 1407 1408 1409 1410 1412 1413 1414 1416 1417 1418 1419 1421 1422 1423 1424 1426 1427 1427 1429 1430 1431 1433 1433 1435 1436 1437 1438 1439 1440 1442 1444 1445 1446 1447 1448 1448 1447 1447 1449 1451 1453 1454 1455 1456 1457
1441 1439 1437 1435 1433 1431 1429 1427 1425 1423 1421 1418 1416 1415 1413 1412 1410 1409 1407 1406 1404 1403 1402 1401 1400 1400 1399 1399 1399 1398 1398 1398 1398 1399 1399 1399 1400 1401 1402 1403 1403 1404 1405 1407 1408 1409 1410 1411 1413 1414 1415 1416 1418 1419 1420 1421 1422 1423 1424 1425 1427 1428 1429 1430 1431 1432 1433 1434 1435 1437 1439 1440 1441 1442 1443 1444 1444 1444 1445 1447 1449 1451 1452 1451 1452
1439 1437 1435 1433 1431 1429 1427 1425 1423 1421 1419 1417 1414 1412 1411 1409 1408 1407 1405 1404 1403 1401 1400 1399 1398 1397 1397 1396 1396 1396 1396 1395 1395 1396 1396 1397 1397 1398 1398 1399 1400 1401 1402 1403 1404 1405 1406 1407 1408 1410 1411 1412 1414 1415 1416 1417 1418 1419 1420 1421 1422 1423 1425 1426 1427 1428 1429 1429 1431 1433 1434 1435 1437 1439 1440 1441 1441 1441 1441 1443 1445 1447 1448 1447 1447
1436 1434 1432 1430 1428 1426 1424 1422 1420 1418 1416 1414 1412 1410 1408 1407 1405 1404 1403 1402 1400 1399 1398 1397 1396 1395 1395 1394 1394 1393 1393 1393 1393 1393 1394 1394 1394 1395 1396 1397 1398 1399 1400 1400 1401 1402 1403 1403 1404 1406 1407 1409 1410 1411 1412 1413 1414 1415 1416 1417 1418 1419 1420 1421 1422 1424 1425 1426 1427 1428 1429 1431 1433 1435 1436 1437 1437 1437 1438 1439 1440 1442 1443 1443 1443
1434 1432 1430 1428 1425 1424 1422 1420 1417 1415 1413 1412 1410 1408 1406 1404 1403 1401 1400 1399 1398 1397 1396 1395 1394 1393 1393 1392 1392 1391 1391 1391 1391 1391 1391 1391 1392 1393 1394 1394 1395 1396 1396 1397 1398 1399 1400 1400 1401 1402 1404 1405 1406 1407 1408 1409 1410 1411 1412 1413 1413 1414 1416 1417 1418 1420 1421 1422 1423 1424 1426 1427 1429 1430 1432 1433 1434 1434 1434 1435 1436 1438 1439 1439 1439
1431 1429 1428 1425 1423 1421 1419 1417 1414 1412 1411 1409 1407 1405 1403 1402 1400 1398 1397 1396 1395 1394 1393 1392 1392 1391 1391 1390 1390 1390 1390 1389 1389 1389 1389 1389 1390 1391 1392 1392 1392 1393 1393 1394 1395 1396 1397 1398 1398 1399 1401 1402 1403 1404 1405 1406 1407 1408 1408 1409 1410 1410 1412 1413 1415 1416 1417 1418 1419 1420 1422 1424 1425 1426 1428 1430 1430 1431 1431 1432 1433 1434 1435 1435 1437
1429 1426 1425 1423 1421 1419 1417 1414 1411 1409 1408 1406 1404 1402 1400 1399 1397 1395 1394 1392 1391 1391 1390 1389 1389 1388 1388 1388 1388 1388 1388 1388 1388 1387 1386 1386 1387 1388 1389 1389 1390 1390 1391 1392 1392 1393 1394 1395 1396 1397 1398 1399 1400 1400 1401 1402 1403 1404 1405 1405 1406 1407 1408 1409 1411 1412 1413 1414 1415 1416 1418 1420 1421 1423 1424 1425 1426 1427 1428 1429 1430 1431 1431 1432 1433
1426 1424 1422 1420 1418 1416 1414 1411 1408 1406 1405 1403 1401 1399 1397 1395 1394 1392 1391 1389 1388 1387 1387 1386 1386 1385 1385 1385 1385 1386 1386 1386 1385 1385 1384 1384 1385 1386 1386 1387 1387 1388 1388 1389 1390 1391 1392 1393 1394 1394 1395 1396 1397 1397 1398 1399 1400 1401 1401 1402 1403 1404 1404 1405 1407 1409 1410 1411 1412 1413 1415 1416 1418 1419 1420 1421 1422 1424 1425 1425 1426 1426 1427 1427 1428
1423 1421 1419 1416 1415 1413 1411 1408 1405 1403 1401 1399 1397 1396 1394 1392 1390 1389 1387 1386 1385 1384 1383 1383 1382 1382 1382 1382 1383 1383 1383 1383 1383 1383 1382 1381 1382 1384 1384 1384 1385 1385 1386 1387 1387 1388 1389 1390 1391 1391 1392 1393 1394 1395 1396 1396 1397 1398 1399 1399 1400 1401 1401 1402 1404 1406 1407 1409 1410 1411 1412 1413 1414 1415 1416 1417 1418 1420 1421 1421 1421 1422 1423 1423 1423
1420 1418 1415 1413 1411 1409 1407 1404 1401 1399 1397 1396 1394 1392 1391 1389 1387 1385 1384 1383 1382 1381 1380 1380 1379 1379 1379 1379 1380 1380 1380 1381 1381 1381 1380 1379 1380 1382 1382 1382 1383 1383 1384 1384 1385 1386 1387 1388 1388 1389 1390 1391 1392 1393 1394 1394 1395 1395 1396 1397 1397 1398 1399 1399 1400 1402 1404 1406 1407 1409 1410 1411 1411 1412 1413 1414 1415 1416 1416 1417 1418 1419 1419 1419 1420
1417 1414 1412 1410 1408 1406 1403 1400 1397 1395 1393 1392 1390 1388 1387 1385 1383 1382 1381 1380 1379 1379 1378 1377 1376 1376 1376 1377 1377 1377 1378 1378 1378 1379 1379 1378 1378 1380 1381 1380 1381 1381 1382 1383 1383 1384 1385 1386 1387 1387 1388 1389 1390 1391 1392 1392 1392 1393 1394 1394 1394 1395 1396 1397 1398 1400 1402 1403 1404 1405 1407 1408 1408 1409 1410 1412 1413 1413 1413 1414 1416 1416 1416 1416 1418
1413 1410 1408 1406 1404 1401 1399 1396 1393 1391 1389 1387 1386 1384 1382 1381 1380 1379 1378 1377 1376 1376 1375 1375 1374 1374 1374 1374 1374 1375 1375 1376 1376 1376 1376 1376 1377 1378 1378 1379 1379 1380 1380 1381 1382 1382 1383 1384 1384 1385 1386 1387 1388 1389 1389 1390 1390 1390 1391 1392 1392 1393 1394 1395 1395 1397 1399 1400 1401 1402 1403 1404 1405 1406 1407 1409 1410 1411 1411 1411 1412 1413 1413 1414 1415
1409 1406 1404 1402 1400 1397 1395 1392 1390 1388 1386 1383 1382 1380 1379 1377 1376 1375 1375 1374 1374 1373 1373 1372 1372 1372 1372 1372 1372 1373 1373 1373 1374 1374 1374 1374 1375 1375 1376 1376 1377 1378 1379 1379 1380 1381 1381 1382 1382 1383 1384 1385 1385 1386 1387 1387 1388 1388 1388 1389 1390 1391 1392 1392 1393 1395 1396 1397 1398 1399 1400 1401 1402 1403 1404 1405 1407 1408 1409 1409 1409 1410 1411 1411 1412
1405 1402 1400 1398 1396 1393 1391 1389 1386 1384 1382 1380 1378 1376 1375 1374 1373 1372 1372 1371 1371 1371 1370 1370 1370 1370 1370 1370 1370 1371 1371 1371 1372 1372 1372 1372 1373 1373 1374 1374 1375 1376 1377 1377 1378 1379 1379 1379 1379 1380 1381 1382 1383 1383 1384 1384 1385 1386 1386 1387 1387 1388 1389 1390 1391 1392 1393 1394 1395 1396 1397 1398 1399 1400 1400 1401 1403 1404 1406 1406 1406 1407 1408 1409 1409
1401 1398 1396 1394 1391 1389 1387 1384 1382 1380 1378 1376 1374 1373 1372 1372 1371 1370 1369 1369 1368 1368 1368 1368 1368 1368 1368 1368 1368 1369 1369 1369 1370 1370 1370 1370 1371 1372 1372 1373 1373 1374 1375 1375 1376 1377 1377 1377 1377 1378 1379 1380 1380 1380 1380 1381 1382 1383 1383 1383 1384 1386 1387 1389 1390 1390 1391 1391 1392 1393 1394 1395 1396 1397 1398 1399 1399 1400 1401 1402 1403 1403 1404 1405 1406
1397 1394 1392 1390 1387 1385 1382 1380 1378 1376 1374 1373 1371 1370 1370 1369 1368 1368 1367 1367 1366 1366 1366 1366 1366 1366 1367 1367 1367 1367 1367 1368 1368 1368 1369 1369 1369 1370 1371 1371 1372 1372 1373 1373 1374 1374 1375 1375 1376 1376 1377 1377 1377 1377 1378 1379 1379 1380 1380 1381 1382 1383 1385 1386 1387 1388 1388 1389 1390 1391 1392 1393 1393 1394 1395 1396 1396 1396 1397 1398 1400 1400 1400 1400 1401
1392 1391 1388 1386 1383 1381 1378 1376 1374 1373 1371 1370 1369 1368 1367 1367 1366 1366 1365 1365 1364 1364 1364 1364 1364 1365 1365 1366 1366 1366 1366 1366 1367 1367 1367 1367 1368 1368 1369 1370 1370 1371 1371 1372 1372 1373 1373 1373 1374 1374 1375 1375 1375 1375 1376 1377 1377 1378 1378 1379 1380 1381 1382 1383 1384 1385 1385 1387 1388 1388 1389 1390 1390 1391 1391 1392 1393 1394 1394 1394 1396 1396 1396 1396 1396
1388 1387 1384 1382 1379 1377 1374 1373 1371 1369 1368 1367 1366 1366 1365 1364 1364 1364 1363 1363 1363 1362 1363 1363 1363 1363 1364 1364 1364 1364 1365 1365 1365 1366 1366 1366 1366 1367 1368 1368 1369 1369 1370 1370 1370 1371 1371 1371 1372 1372 1373 1373 1373 1374 1374 1375 1375 1376 1376 1377 1378 1379 1379 1380 1381 1382 1383 1384 1385 1386 1387 1387 1388 1387 1387 1388 1389 1391 1392 1391 1392 1392 1392 1392 1392
1384 1382 1380 1378 1375 1373 1371 1369 1368 1366 1365 1364 1364 1363 1363 1362 1362 1361 1361 1361 1361 1361 1361 1361 1361 1362 1362 1363 1363 1363 1363 1364 1364 1364 1364 1365 1365 1365 1366 1366 1367 1367 1368 1368 1368 1368 1369 1369 1370 1370 1371 1371 1371 1372 1372 1373 1374 1374 1374 1375 1375 1376 1377 1378 1378 1379 1380 1381 1382 1383 1384 1384 1384 1384 1384 1385 1386 1387 1388 1389 1388 1389 1389 1389 1389
1381 1379 1376 1374 1372 1370 1368 1366 1365 1364 1363 1362 1361 1361 1360 1360 1360 1359 1359 1359 1359 1359 1359 1360 1360 1361 1361 1362 1362 1362 1362 1363 1363 1363 1363 1363 1363 1364 1364 1364 1365 1365 1365 1366 1366 1366 1367 1367 1368 1368 1369 1369 1370 1370 1370 1371 1371 1371 1372 1372 1373 1373 1374 1375 1375 1376 1377 1378 1379 1379 1380 1381 1381 1381 1382 1383 1383 1384 1385 1385 1385 1385 1386 1386 1385
1378 1375 1373 1371 1369 1367 1365 1363 1362 1361 1360 1360 1359 1359 1358 1358 1357 1357 1357 1357 1357 1357 1358 1358 1359 1360 1360 1360 1361 1361 1362 1362 1362 1361 1361 1362 1362 1362 1362 1363 1363 1363 1364 1364 1364 1364 1365 1365 1366 1366 1366 1367 1367 1368 1368 1369 1369 1369 1369 1369 1370 1370 1371 1372 1372 1373 1374 1374 1375 1376 1377 1377 1378 1378 1379 1379 1380 1380 1381 1381 1381 1381 1382 1382 1382
1374 1371 1370 1368 1366 1364 1363 1361 1360 1359 1358 1358 1357 1356 1356 1355 1355 1355 1355 1355 1355 1356 1356 1357 1358 1358 1358 1359 1359 1359 1360 1360 1360 1360 1360 1360 1361 1361 1361 1361 1361 1361 1362 1362 1362 1363 1363 1363 1363 1364 1364 1364 1365 1365 1366 1366 1366 1366 1366 1366 1367 1367 1368 1369 1369 1370 1370 1371 1371 1372 1373 1374 1374 1375 1375 1376 1376 1377 1377 1377 1378 1378 1378 1379 1379
1371 1369 1367 1366 1364 1362 1361 1359 1358 1357 1357 1356 1355 1354 1354 1353 1353 1353 1353 1353 1354 1354 1355 1356 1357 1357 1356 1357 1357 1357 1358 1358 1358 1358 1358 1359 1359 1358 1358 1359 1359 1359 1360 1360 1361 1361 1361 1362 1362 1362 1362 1362 1362 1363 1363 1363 1364 1364 1364 1364 1364 1364 1365 1365 1366 1366 1367 1368 1368 1369 1370 1370 1371 1372 1372 1372 1373 1373 1374 1374 1374 1375 1375 1375 1376
1368 1366 1365 1364 1362 1360 1359 1358 1357 1356 1355 1354 1353 1352 1352 1351 1351 1351 1351 1352 1352 1353 1353 1354 1354 1354 1354 1354 1355 1355 1355 1355 1356 1356 1356 1357 1357 1357 1357 1358 1357 1357 1357 1358 1359 1359 1360 1360 1360 1360 1360 1360 1360 1361 1361 1361 1361 1362 1362 1362 1362 1361 1362 1362 1363 1364 1365 1365 1365 1366 1367 1367 1368 1369 1369 1369 1370 1370 1371 1371 1371 1372 1372 1372 1373
1366 1364 1363 1361 1360 1358 1357 1356 1355 1354 1353 1352 1351 1351 1350 1350 1350 1350 1350 1350 1351 1351 1351 1352 1352 1352 1352 1352 1353 1353 1353 1353 1353 1353 1354 1355 1354 1355 1355 1355 1355 1355 1356 1356 1357 1357 1357 1357 1357 1358 1358 1358 1358 1358 1358 1358 1359 1359 1359 1360 1360 1359 1358 1359 1361 1362 1362 1362 1363 1363 1364 1364 1365 1366 1366 1366 1367 1367 1368 1368 1368 1369 1369 1369 1369
1364 1362 1361 1359 1358 1357 1356 1355 1354 1353 1352 1351 1350 1349 1349 1349 1349 1349 1348 1348 1349 1349 1349 1350 1350 1351 1351 1351 1351 1351 1351 1351 1351 1352 1353 1353 1352 1352 1352 1352 1353 1353 1354 1354 1354 1354 1354 1354 1354 1355 1355 1355 1355 1355 1355 1355 1355 1355 1356 1356 1357 1356 1356 1357 1358 1359 1359 1359 1360 1361 1361 1361 1362 1363 1363 1364 1364 1364 1365 1365 1365 1366 1366 1366 1366
1362 1360 1359 1358 1357 1356 1355 1354 1352 1351 1350 1349 1348 1348 1348 1347 1347 1347 1347 1347 1347 1347 1347 1347 1348 1349 1349 1349 1349 1349 1349 1349 1349 1350 1351 1350 1349 1349 1350 1350 1350 1350 1350 1350 1351 1351 1351 1351 1351 1351 1351 1351 1351 1351 1352 1352 1352 1352 1353 1353 1353 1353 1354 1355 1355 1355 1356 1357 1357 1357 1358 1359 1359 1360 1360 1361 1361 1362 1362 1362 1362 1362 1363 1363 1363
1361 1359 1358 1357 1356 1355 1354 1353 1351 1350 1349 1348 1347 1347 1346 1346 1346 1345 1345 1345 1345 1345 1345 1345 1345 1346 1346 1346 1346 1346 1346 1346 1347 1347 1347 1347 1346 1347 1347 1347 1347 1347 1347 1347 1348 1348 1348 1348 1348 1348 1348 1348 1348 1348 1348 1348 1349 1349 1350 1350 1350 1350 1351 1352 1352 1352 1353 1354 1354 1354 1355 1356 1356 1357 1357 1357 1358 1359 1359 1359 1359 1359 1359 1359 1359
1360 1359 1358 1356 1355 1354 1352 1351 1350 1349 1347 1346 1346 1345 1345 1344 1344 1344 1343 1343 1343 1343 1343 1343 1343 1344 1344 1344 1344 1344 1344 1344 1344 1344 1344 1344 1344 1345 1345 1345 1345 1345 1345 1345 1345 1345 1345 1345 1345 1345 1345 1345 1345 1345 1345 1345 1346 1346 1347 1347 1348 1348 1349 1349 1349 1350 1351 1351 1351 1352 1353 1353 1353 1354 1355 1355 1355 1356 1356 1356 1356 1356 1356 1356 1356
1358 1357 1356 1355 1353 1352 1350 1349 1348 1347 1346 1345 1344 1344 1343 1343 1342 1342 1342 1342 1341 1341 1341 1342 1342 1342 1342 1342 1342 1342 1342 1342 1342 1342 1342 1342 1342 1342 1342 1342 1343 1343 1343 1343 1342 1342 1342 1342 1342 1342 1342 1342 1342 1342 1342 1342 1343 1343 1344 1345 1345 1346 1346 1346 1347 1348 1349 1349 1349 1349 1350 1351 1351 1352 1352 1353 1353 1353 1353 1353 1354 1354 1354 1354 1354
1356 1355 1354 1352 1351 1350 1348 1347 1346 1345 1344 1343 1342 1342 1341 1341 1341 1341 1340 1340 1340 1340 1340 1340 1340 1340 1340 1340 1340 1340 1340 1340 1340 1340 1340 1340 1340 1340 1340 1340 1340 1340 1340 1340 1340 1340 1340 1339 1339 1339 1339 1339 1339 1339 1340 1340 1340 1341 1341 1342 1343 1343 1343 1344 1345 1345 1346 1346 1347 1347 1348 1348 1349 1349 1350 1350 1350 1350 1350 1351 1351 1351 1351 1351 1351
1355 1353 1351 1350 1349 1347 1346 1345 1344 1343 1342 1341 1340 1340 1340 1339 1339 1339 1338 1338 1338 1338 1338 1338 1338 1338 1338 1338 1338 1338 1338 1338 1338 1338 1338 1338 1338 1338 1338 1338 1338 1338 1338 1337 1337 1337 1336 1336 1336 1336 1336 1336 1336 1337 1337 1337 1338 1338 1339 1340 1340 1341 1341 1342 1342 1343 1344 1344 1344 1345 1345 1346 1346 1347 1347 1347 1347 1347 1348 1348 1348 1349 1348 1348 1349
1352 1351 1349 1348 1346 1345 1344 1342 1341 1340 1339 1339 1338 1338 1337 1337 1337 1336 1336 1336 1336 1336 1335 1335 1335 1335 1335 1336 1336 1336 1336 1336 1336 1336 1336 1336 1336 1336 1336 1336 1336 1335 1335 1334 1334 1334 1333 1333 1333 1333 1333 1333 1334 1334 1335 1335 1336 1336 1337 1338 1338 1338 1339 1340 1340 1341 1342 1342 1343 1343 1343 1344 1344 1345 1345 1345 1345 1345 1345 1346 1346 1346 1346 1346 1346
1350 1349 1347 1346 1344 1343 1341 1340 1339 1338 1337 1336 1336 1335 1335 1335 1334 1334 1334 1334 1334 1333 1333 1333 1333 1332 1332 1333 1333 1333 1334 1334 1334 1334 1334 1334 1334 1334 1334 1333 1333 1333 1332 1332 1331 1331 1331 1331 1331 1331 1331 1331 1331 1332 1333 1333 1334 1334 1335 1335 1336 1336 1337 1337 1338 1339 1340 1340 1341 1341 1341 1342 1342 1343 1343 1343 1343 1343 1344 1344 1344 1344 1344 1344 1344
1348 1346 1344 1343 1342 1340 1339 1338 1337 1336 1335 1334 1333 1333 1332 1332 1332 1331 1331 1331 1331 1331 1330 1330 1330 1330 1330 1330 1331 1331 1331 1331 1332 1332 1332 1332 1332 1331 1331 1331 1330 1330 1330 1330 1329 1329 1329 1328 1328 1328 1328 1329 1329 1330 1331 1331 1332 1332 1333 1333 1334 1335 1335 1335 1336 1337 1338 1338 1339 1339 1340 1340 1340 1341 1341 1341 1342 1342 1342 1342 1342 1342 1342 1342 1342
1345 1343 1342 1340 1339 1337 1336 1335 1334 1333 1332 1331 1330 1330 1330 1329 1329 1329 1328 1328 1328 1328 1328 1328 1328 1327 1327 1328 1328 1328 1328 1329 1329 1329 1329 1329 1329 1329 1329 1328 1328 1328 1327 1327 1327 1327 1327 1326 1326 1326 1326 1327 1328 1328 1329 1329 1330 1330 1331 1331 1332 1333 1333 1334 1334 1335 1336 1336 1337 1337 1338 1338 1339 1339 1339 1340 1340 1340 1340 1340 1340 1340 1341 1340 1340
1342 1340 1339 1337 1336 1334 1333 1332 1331 1330 1329 1328 1328 1327 1327 1326 1326 1326 1325 1325 1325 1325 1325 1325 1325 1325 1325 1325 1325 1326 1326 1326 1326 1326 1326 1327 1327 1327 1327 1326 1326 1326 1325 1325 1325 1325 1324 1324 1324 1324 1324 1325 1326 1326 1327 1327 1328 1329 1329 1330 1330 1331 1331 1332 1333 1333 1334 1335 1335 1336 1336 1337 1337 1337 1338 1338 1338 1339 1339 1339 1339 1339 1339 1339 1338
1340 1338 1336 1334 1333 1331 1330 1329 1328 1327 1326 1325 1324 1324 1324 1323 1323 1323 1323 1323 1322 1322 1322 1322 1322 1322 1322 1322 1322 1322 1323 1323 1323 1323 1324 1324 1324 1324 1324 1324 1324 1324 1323 1323 1323 1322 1322 1322 1322 1322 1323 1323 1324 1325 1325 1326 1326 1327 1328 1328 1329 1329 1330 1331 1331 1332 1333 1333 1334 1334 1335 1335 1336 1336 1336 1337 1337 1337 1337 1337 1337 1337 1337 1337 1337
1337 1335 1333 1331 1330 1328 1327 1326 1325 1324 1323 1322 1321 1321 1321 1320 1320 1320 1320 1320 1320 1320 1319 1319 1319 1319 1319 1319 1319 1319 1320 1320 1320 1320 1321 1321 1321 1322 1321 1321 1321 1321 1321 1321 1320 1320 1320 1320 1320 1320 1321 1321 1322 1323 1323 1324 1325 1325 1326 1327 1327 1328 1329 1330 1330 1331 1332 1332 1332 1333 1334 1334 1334 1335 1335 1336 1336 1336 1336 1336 1336 1336 1336 1335 1335
1334 1332 1330 1329 1327 1325 1324 1323 1322 1321 1320 1319 1318 1318 1318 1317 1317 1317 1317 1317 1317 1317 1316 1316 1316 1316 1316 1316 1316 1316 1317 1317 1317 1317 1318 1318 1318 1319 1319 1319 1319 1319 1319 1318 1318 1318 1318 1318 1318 1318 1319 1320 1320 1321 1322 1322 1323 1324 1325 1325 1326 1327 1328 1328 1329 1330 1330 1331 1332 1332 1333 1333 1334 1334 1334 1335 1335 1335 1335 1335 1335 1335 1334 1334 1333
1330 1329 1327 1326 1324 1323 1321 1320 1319 1317 1317 1316 1315 1315 1314 1314 1314 1314 1314 1314 1314 1313 1313 1313 1313 1313 1313 1313 1313 1313 1314 1314 1314 1314 1315 1315 1315 1316 1316 1316 1316 1316 1316 1316 1316 1315 1315 1315 1316 1316 1317 1318 1318 1319 1320 1321 1322 1322 1323 1324 1325 1326 1326 1327 1328 1329 1329 1330 1331 1331 1332 1332 1333 1333 1333 1334 1334 1334 1334 1334 1333 1333 1333 1332 1332
1326 1325 1323 1322 1321 1319 1318 1317 1315 1314 1314 1313 1312 1311 1311 1311 1311 1311 1311 1311 1311 1310 1310 1310 1310 1310 1310 1310 1310 1310 1311 1311 1311 1311 1312 1312 1312 1312 1313 1313 1314 1313 1313 1313 1313 1313 1313 1313 1313 1314 1315 1316 1317 1318 1319 1319 1320 1321 1322 1323 1324 1324 1325 1326 1327 1328 1329 1329 1330 1330 1331 1332 1332 1332 1332 1333 1333 1333 1333 1333 1332 1332 1332 1331 1330
1323 1321 1319 1318 1317 1316 1315 1313 1312 1311 1310 1309 1309 1308 1308 1308 1308 1308 1308 1307 1307 1307 1307 1307 1307 1307 1307 1307 1307 1307 1308 1308 1308 1308 1309 1309 1309 1310 1310 1310 1311 1311 1311 1311 1311 1311 1311 1311 1311 1312 1313 1314 1315 1316 1317 1318 1319 1320 1321 1322 1323 1323 1324 1325 1326 1327 1328 1328 1329 1330 1330 1331 1331 1331 1331 1332 1332 1331 1331 1331 1331 1330 1330 1329 1329